This is the latest recevied weather packets stored in our database for station/object KB4RFE. If no packets are shown the sender has not sent any weather packets the latest 10 day(s).
| Time | Temp. | Humidity | Pressure | Rain* | Wind** | Luminosity | Snow |
|---|---|---|---|---|---|---|---|
| 1777721138 | 16.67° C | 98% | 1012.5 hPa | 0 mm | - | 6 W/m² | - |
| 1777720835 | 16.67° C | 98% | 1012.3 hPa | 0 mm | - | 8 W/m² | - |
| 1777720532 | 16.67° C | 98% | 1012.4 hPa | 0.51 mm | - | 12 W/m² | - |
| 1777720230 | 16.67° C | 98% | 1012.5 hPa | 0.51 mm | - | 19 W/m² | - |
| 1777719927 | 16.67° C | 98% | 1012.4 hPa | 0 mm | - | 20 W/m² | - |
| 1777719625 | 16.67° C | 98% | 1012.4 hPa | 1.27 mm | - | 26 W/m² | - |
| 1777719322 | 16.67° C | 98% | 1012.4 hPa | 4.32 mm | - | 14 W/m² | - |
| 1777719020 | 16.67° C | 98% | 1012.8 hPa | 2.29 mm | - | 8 W/m² | - |
| 1777718716 | 17.22° C | 98% | 1013.4 hPa | 0.51 mm | - | 3 W/m² | - |
| 1777718414 | 17.22° C | 98% | 1013.2 hPa | 1.78 mm | - | 3 W/m² | - |
| 1777718112 | 17.22° C | 98% | 1013.1 hPa | 1.78 mm | - | 1 W/m² | - |
| 1777717810 | 17.22° C | 98% | 1013.5 hPa | 0.51 mm | - | 0 W/m² | - |
| 1777717505 | 17.22° C | 98% | 1013 hPa | 0.51 mm | - | 0 W/m² | - |
| 1777717203 | 17.22° C | 98% | 1012.9 hPa | 0.51 mm | - | 0 W/m² | - |
| 1777716900 | 17.22° C | 98% | 1013.1 hPa | 1.27 mm | - | 0 W/m² | - |
| 1777716599 | 17.22° C | 98% | 1012.9 hPa | 1.78 mm | - | 0 W/m² | - |
| 1777716297 | 17.22° C | 98% | 1013.7 hPa | 1.78 mm | - | 0 W/m² | - |
| 1777715995 | 17.22° C | 98% | 1013.6 hPa | 0.51 mm | - | 0 W/m² | - |
| 1777715692 | 17.22° C | 98% | 1013.3 hPa | 1.78 mm | - | 0 W/m² | - |
| 1777715390 | 17.22° C | 98% | 1013.3 hPa | 1.78 mm | - | 0 W/m² | - |
| 1777715086 | 17.22° C | 98% | 1013.4 hPa | 1.27 mm | - | 0 W/m² | - |
| 1777714785 | 17.22° C | 98% | 1013.6 hPa | 1.27 mm | - | 0 W/m² | - |
| 1777714483 | 17.22° C | 98% | 1013.6 hPa | 1.78 mm | - | 0 W/m² | - |
| 1777714180 | 17.22° C | 98% | 1013.9 hPa | 2.29 mm | - | 0 W/m² | - |
| 1777713878 | 17.22° C | 98% | 1013.9 hPa | 2.29 mm | - | 0 W/m² | - |
* Rain latest hour (hover to see other rain measurements)
** Current wind speed in m/s (hover to see current wind gust speed)